Location: Campestrin
(46.4667°N, 11.7167°E)
Time: 10:51:01
(UTC+00:00)

Cosmos 2082 - Pass Details

Date: 18 April 2021
Orbit: 834 x 855 km, 71.0° (Epoch: 06 May)

Event Time Altitude Azimuth Distance (km) Brightness Sun altitude
Exits shadow 21:39:16 78° 299° (WNW) 856 3.7 -28.7°
Drops below altitude 10° 21:44:54 10° 25° (NNE) 2,457 6.6 -29.1°
Sets 21:47:21 0° 26° (NNE) 3,397 7.4 -29.3°
